DELTA 1 DEB, 3126

Orbit data source: Space-Track

DELTA 1 DEB, 3126 is space debris in LEO originally from a launch on Thu, 11 Jan 1968 UTC launched from the Air Force Western Test Range (AFWTR). Debris objects in space refer to the collection of defunct objects orbiting the Earth. Examples of debris include non-operational satellites, rocket bodies, and fragments generated from explosions, collisions, or faulty payload assembly.

Loading next visibility...
Identifier
3126, 1968-002C
Orbit
LEO
Country
Flag of USUS
Related business
Manufacturer
Unknown
Mission
Spacecraft
Bus & Motor
Unknown
Mass
Unknown
Launch date (UTC)
1968-01-11 (58 years ago)
Launch vehicle
Unknown
Launch site
Air Force Western Test Range (AFWTR)
Object type
Payload
Rocket body
Debris
Shape & HBR
Unknown shape, 0.1 m
Radar Cross Section
Small (<0.1 m²)

Expand to show TLE details & history
Last TLE update: 5 days ago

TLE from 5 days ago
0 DELTA 1 DEB
1  3126U 68002C   26121.29902675 -.00000067  00000-0  39166-4 0  9993
2  3126 106.0594  51.2234 0322253 235.2896 279.5399 12.82464931728278
Epoch: 2026-05-01T07:10Z
TLE epoch observation values (Epoch: 2026-05-01T07:10:35.911Z)
Latitude
27.65445°
Longitude
-87.02755°
Altitude
1,301.171 km
Speed
7.224 km/s
True Right ascension
15h 59m 25s
True Declination
27° 31' 24"
Sunlit
Object was in full shadow at epoch
Visualization orbit readout
Latitude
Unknown
Longitude
Unknown
Altitude
Unknown
Speed
Unknown
Apparent Right ascension
Unknown
Apparent Declination
Unknown
Sunlit
N/A
Visualization observer readout
Local Sidereal Time
05:33:52
Azimuth
Unknown
Elevation
Unknown
Doppler factor
Unknown
Orbital elements
Apogee altitude
1,577.754 km
Perigee altitude
1,081 km
Semi-major axis
7,707.514 km
Eccentricity
0.03223
Inclination
106.0594°
RAAN
51.2234°
Arg. of periapsis
235.2896°
True anomaly
275.87625°
Mean anomaly
279.5399°
Eccentric anomaly
277.71022°
Mean motion
3.20754 °/min
Orbital period
112.24 mins
BSTAR
0.000039166
Loading maneuver chart data...
Computing Atmospheric mass density...
Loading historical data...
Loading historical data...
Loading historical data...
Loading historical data...
Loading historical data...
Loading historical data...
Loading historical data...

Documentation

Showing up to 5 results
|